| time (UTC) | temp C | wind direction | speed KPH | gust KPH | rain 1hr cm | rain 24hr cm | rain mn cm | humidity % | barometer mb |
| 20260505060013 | 0 | 22 | 25.7 | 25.7 | 0.00 | 0.00 | 0.00 | 70 | 88.8 |
| 20260505055011 | 0 | 22 | 22.5 | 22.5 | 0.00 | 0.00 | 0.00 | 69 | 88.8 |
| 20260505052011 | 1 | 22 | 22.5 | 22.5 | 0.00 | 0.00 | 0.00 | 70 | 88.8 |
| 20260505051012 | 1 | 22 | 29.0 | 29.0 | 0.00 | 0.00 | 0.00 | 70 | 88.8 |
| 20260505041012 | 1 | 0 | 20.9 | 20.9 | 0.00 | 0.00 | 0.00 | 70 | 88.8 |
| 20260505040011 | 1 | 45 | 20.9 | 20.9 | 0.00 | 0.00 | 0.00 | 71 | 88.8 |
| 20260505035011 | 1 | 0 | 20.9 | 20.9 | 0.00 | 0.00 | 0.00 | 72 | 88.8 |
| 20260505034012 | 1 | 0 | 25.7 | 25.7 | 0.00 | 0.00 | 0.00 | 71 | 88.8 |
| 20260505033013 | 2 | 22 | 16.1 | 16.1 | 0.00 | 0.00 | 0.00 | 70 | 88.8 |
| 20260505032011 | 2 | 0 | 29.0 | 29.0 | 0.00 | 0.00 | 0.00 | 69 | 88.8 |
| 20260505031012 | 2 | 22 | 22.5 | 22.5 | 0.00 | 0.00 | 0.00 | 69 | 88.8 |
| 20260505030012 | 2 | 0 | 25.7 | 25.7 | 0.00 | 0.00 | 0.00 | 70 | 88.8 |
| 20260505025013 | 2 | 0 | 17.7 | 17.7 | 0.00 | 0.00 | 0.00 | 71 | 88.8 |
| 20260505024011 | 2 | 338 | 17.7 | 17.7 | 0.00 | 0.00 | 0.00 | 70 | 88.8 |
| 20260505023012 | 2 | 0 | 25.7 | 25.7 | 0.00 | 0.00 | 0.00 | 70 | 88.8 |
| 20260505022012 | 2 | 338 | 27.4 | 27.4 | 0.00 | 0.00 | 0.00 | 70 | 88.8 |
| 20260505021012 | 2 | 0 | 29.0 | 29.0 | 0.00 | 0.00 | 0.00 | 70 | 88.8 |
| 20260505020011 | 2 | 0 | 27.4 | 27.4 | 0.00 | 0.00 | 0.00 | 69 | 88.8 |
| 20260505015012 | 2 | 315 | 22.5 | 22.5 | 0.00 | 0.00 | 0.00 | 69 | 88.8 |
| 20260505014011 | 2 | 0 | 25.7 | 25.7 | 0.00 | 0.00 | 0.00 | 69 | 88.8 |
| 20260505013012 | 2 | 0 | 30.6 | 30.6 | 0.00 | 0.00 | 0.00 | 69 | 88.8 |
| 20260505012012 | 2 | 0 | 32.2 | 32.2 | 0.00 | 0.00 | 0.00 | 68 | 88.8 |
| 20260505011012 | 2 | 22 | 30.6 | 30.6 | 0.00 | 0.00 | 0.00 | 68 | 88.8 |
| 20260505010011 | 2 | 338 | 25.7 | 25.7 | 0.00 | 0.00 | 0.00 | 68 | 88.8 |
| 20260505005011 | 2 | 338 | 30.6 | 30.6 | 0.00 | 0.00 | 0.00 | 68 | 88.8 |
| 20260505004011 | 3 | 22 | 17.7 | 17.7 | 0.00 | 0.00 | 0.00 | 68 | 88.8 |
| 20260505003011 | 3 | 338 | 30.6 | 30.6 | 0.00 | 0.00 | 0.00 | 67 | 88.8 |
| 20260505002012 | 3 | 338 | 22.5 | 22.5 | 0.00 | 0.00 | 0.00 | 67 | 88.8 |
| 20260505001012 | 3 | 0 | 33.8 | 33.8 | 0.00 | 0.00 | 0.00 | 67 | 88.8 |
| 20260505000012 | 3 | 0 | 33.8 | 33.8 | 0.00 | 0.00 | 0.00 | 67 | 88.8 |
| 20260504235012 | 3 | 0 | 27.4 | 27.4 | 0.00 | 0.00 | 0.00 | 67 | 88.8 |
| 20260504234012 | 3 | 0 | 30.6 | 30.6 | 0.00 | 0.00 | 0.00 | 67 | 88.8 |
| 20260504233012 | 3 | 0 | 33.8 | 33.8 | 0.00 | 0.00 | 0.00 | 67 | 88.8 |
| 20260504232012 | 3 | 315 | 24.1 | 24.1 | 0.00 | 0.00 | 0.00 | 67 | 88.8 |
| 20260504231012 | 3 | 315 | 19.3 | 19.3 | 0.00 | 0.00 | 0.00 | 67 | 88.8 |
| 20260504230011 | 3 | 0 | 32.2 | 32.2 | 0.00 | 0.00 | 0.00 | 67 | 88.8 |
| 20260504225011 | 3 | 0 | 25.7 | 25.7 | 0.00 | 0.00 | 0.00 | 67 | 88.8 |
| 20260504224012 | 3 | 0 | 27.4 | 27.4 | 0.00 | 0.00 | 0.00 | 67 | 88.8 |
| 20260504223012 | 3 | 338 | 25.7 | 25.7 | 0.00 | 0.00 | 0.00 | 67 | 88.8 |
| 20260504222012 | 3 | 22 | 30.6 | 30.6 | 0.00 | 0.00 | 0.00 | 67 | 88.8 |
| 20260504221012 | 4 | 0 | 24.1 | 24.1 | 0.00 | 0.00 | 0.00 | 66 | 88.8 |
| 20260504220012 | 4 | 0 | 29.0 | 29.0 | 0.00 | 0.00 | 0.00 | 66 | 88.8 |
| 20260504215011 | 4 | 338 | 29.0 | 29.0 | 0.00 | 0.00 | 0.00 | 66 | 88.8 |
| 20260504214011 | 3 | 338 | 27.4 | 27.4 | 0.00 | 0.00 | 0.00 | 66 | 88.8 |
| 20260504213012 | 3 | 338 | 33.8 | 33.8 | 0.00 | 0.00 | 0.00 | 67 | 88.8 |
| 20260504212011 | 3 | 0 | 22.5 | 22.5 | 0.00 | 0.00 | 0.00 | 67 | 88.8 |
| 20260504211012 | 3 | 22 | 32.2 | 32.2 | 0.00 | 0.00 | 0.00 | 67 | 88.8 |
| 20260504210012 | 4 | 0 | 29.0 | 29.0 | 0.00 | 0.00 | 0.00 | 66 | 88.8 |
| 20260504205011 | 4 | 22 | 43.5 | 43.5 | 0.00 | 0.00 | 0.00 | 66 | 88.8 |
| 20260504204012 | 4 | 338 | 25.7 | 25.7 | 0.00 | 0.00 | 0.00 | 67 | 88.8 |
| 20260504203011 | 3 | 338 | 27.4 | 27.4 | 0.00 | 0.00 | 0.00 | 67 | 88.8 |
| 20260504202011 | 3 | 22 | 29.0 | 29.0 | 0.00 | 0.00 | 0.00 | 67 | 88.8 |
| 20260504201012 | 3 | 22 | 19.3 | 19.3 | 0.00 | 0.00 | 0.00 | 66 | 88.8 |
| 20260504200011 | 3 | 22 | 25.7 | 25.7 | 0.00 | 0.00 | 0.00 | 67 | 88.8 |
| 20260504195012 | 3 | 338 | 19.3 | 19.3 | 0.00 | 0.00 | 0.00 | 65 | 88.8 |
| 20260504194012 | 4 | 0 | 29.0 | 29.0 | 0.00 | 0.00 | 0.00 | 65 | 88.8 |
| 20260504193012 | 4 | 338 | 35.4 | 35.4 | 0.00 | 0.00 | 0.00 | 65 | 88.8 |
| 20260504191012 | 4 | 22 | 29.0 | 29.0 | 0.00 | 0.00 | 0.00 | 64 | 88.8 |
| 20260504190011 | 4 | 338 | 20.9 | 20.9 | 0.00 | 0.00 | 0.00 | 65 | 88.8 |
| 20260504185012 | 4 | 338 | 24.1 | 24.1 | 0.00 | 0.00 | 0.00 | 65 | 88.8 |
| 20260504184012 | 3 | 292 | 38.6 | 38.6 | 0.00 | 0.00 | 0.00 | 67 | 88.8 |
| 20260504182012 | 3 | 338 | 25.7 | 25.7 | 0.00 | 0.00 | 0.00 | 69 | 88.8 |
| 20260504181011 | 3 | 22 | 29.0 | 29.0 | 0.00 | 0.00 | 0.00 | 68 | 88.8 |
| 20260504180011 | 3 | 338 | 19.3 | 19.3 | 0.00 | 0.00 | 0.00 | 69 | 88.8 |
| 20260504175012 | 3 | 338 | 35.4 | 35.4 | 0.00 | 0.00 | 0.00 | 70 | 88.8 |
| 20260504174012 | 3 | 0 | 22.5 | 22.5 | 0.00 | 0.00 | 0.00 | 70 | 88.8 |
| 20260504173012 | 3 | 292 | 14.5 | 14.5 | 0.00 | 0.00 | 0.00 | 71 | 88.8 |
| 20260504172013 | 2 | 22 | 29.0 | 29.0 | 0.00 | 0.00 | 0.00 | 73 | 88.8 |
| 20260504171012 | 2 | 0 | 25.7 | 25.7 | 0.00 | 0.00 | 0.00 | 74 | 88.8 |
| 20260504151012 | 1 | 22 | 35.4 | 35.4 | 0.00 | 0.00 | 0.00 | 75 | 88.8 |
| 20260504141011 | 1 | 0 | 33.8 | 33.8 | 0.00 | 0.00 | 0.00 | 77 | 88.8 |
| 20260504081011 | 2 | 338 | 16.1 | 16.1 | 0.00 | 0.00 | 0.00 | 91 | 88.8 |